Weather History for KGSO - April, 2013

Change the Weather History Date:

Wednesday, April 24, 2013

  Actual Average Record
Temperature  
Mean Temperature 63 °F 61 °F  
Max Temperature 75 °F 73 °F 94 °F (1925)
Min Temperature 50 °F 50 °F 27 °F (1986)
Degree Days  
Heating Degree Days 2 5  
Month to date heating degree days 159 192  
Since 1 July heating degree days 3504 3517  
Cooling Degree Days 0 2  
Month to date cooling degree days 37 25  
Year to date cooling degree days 37 30  
Growing Degree Days 12 (Base 50)    
Moisture  
Dew Point 52 °F    
Average Humidity 71    
Maximum Humidity 93    
Minimum Humidity 49    
Precipitation  
Precipitation 0.00 in 0.12 in 1.65 in (1987)
Month to date precipitation 2.04 2.89  
Year to date precipitation 13.56 12.64  
Snow  
Snow 0.00 in 0.00 in T in (1955)
Month to date snowfall T 0.1  
Since 1 July snowfall 3.6 7.6  
Snow Depth 0.00 in    
Sea Level Pressure  
Sea Level Pressure 30.05 in    
Wind  
Wind Speed 11 mph (SW)    
Max Wind Speed 25 mph    
Max Gust Speed 36 mph    
Visibility 10 miles    
Events      
T = Trace of Precipitation, MM = Missing Value Source: NWS Daily Summary

Daily Weather History Graph

Daily Weather History Graph

Search for Another Location

Airport or City:

Trip Planner

Search our weather history database for the weather conditions in past years. The results will help you decide how hot, cold, wet, or windy it might be!

Date:

Astronomy

Apr. 24, 2013 Rise Set
Actual Time 6:34 AM EDT 8:01 PM EDT
Civil Twilight 6:07 AM EDT 8:28 PM EDT
Nautical Twilight 5:35 AM EDT 9:00 PM EDT
Astronomical Twilight 5:01 AM EDT 9:35 PM EDT
Moon 7:03 PM EDT (4/24) 5:35 AM EDT (4/24)
Length of Visible Light 14h 20m
Length of Day
13h 26m
Waxing Gibbous, 98% of the Moon is Illuminated
Apr 24
Waxing Gibbous
Apr 25
Full
May 2
Last Quarter
May 9
New
May 18
First Quarter

Hourly Weather History & Observations

Time (EDT) Temp. Dew Point Humidity Pressure Visibility Wind Dir Wind Speed Gust Speed Precip Events Conditions
12:54 AM 54.0 °F 48.9 °F 83% 30.12 in 10.0 mi South 5.8 mph - N/A   Clear
1:54 AM 53.1 °F 48.9 °F 86% 30.11 in 10.0 mi SSW 5.8 mph - N/A   Clear
2:54 AM 52.0 °F 48.9 °F 89% 30.09 in 10.0 mi South 3.5 mph - N/A   Clear
3:54 AM 51.1 °F 48.9 °F 92% 30.09 in 10.0 mi SW 3.5 mph - N/A   Clear
4:54 AM 51.1 °F 48.9 °F 92% 30.09 in 10.0 mi SW 5.8 mph - N/A   Clear
5:54 AM 51.1 °F 48.9 °F 92% 30.09 in 9.0 mi SW 6.9 mph - N/A   Clear
6:54 AM 51.1 °F 48.9 °F 92% 30.11 in 7.0 mi SW 6.9 mph - N/A   Clear
7:54 AM 53.1 °F 51.1 °F 93% 30.11 in 8.0 mi SW 6.9 mph - N/A   Partly Cloudy
8:54 AM 57.0 °F 52.0 °F 83% 30.11 in 10.0 mi SW 13.8 mph - N/A   Mostly Cloudy
9:54 AM 59.0 °F 53.1 °F 81% 30.10 in 10.0 mi SSW 11.5 mph - N/A   Mostly Cloudy
10:25 AM 62.6 °F 53.6 °F 72% 30.11 in 10.0 mi SW 11.5 mph - N/A   Mostly Cloudy
10:54 AM 63.0 °F 53.1 °F 70% 30.08 in 10.0 mi SSW 12.7 mph 20.7 mph N/A   Mostly Cloudy
11:29 AM 64.4 °F 53.6 °F 68% 30.09 in 10.0 mi SSW 13.8 mph - N/A   Scattered Clouds
11:54 AM 64.9 °F 54.0 °F 68% 30.07 in 10.0 mi South 10.4 mph 18.4 mph N/A   Scattered Clouds
12:54 PM 68.0 °F 54.0 °F 61% 30.06 in 10.0 mi SW 12.7 mph 26.5 mph N/A   Scattered Clouds
1:54 PM 70.0 °F 53.1 °F 55% 30.04 in 10.0 mi SW 23.0 mph 28.8 mph N/A   Scattered Clouds
2:54 PM 71.1 °F 53.1 °F 53% 30.02 in 10.0 mi SW 18.4 mph 29.9 mph N/A   Mostly Cloudy
3:54 PM 73.9 °F 53.1 °F 48% 29.99 in 10.0 mi SW 23.0 mph 29.9 mph N/A   Scattered Clouds
4:07 PM 73.4 °F 51.8 °F 47% 30.00 in 10.0 mi SW 21.9 mph 31.1 mph N/A   Clear
4:54 PM 72.0 °F 51.1 °F 48% 29.97 in 10.0 mi SW 20.7 mph 27.6 mph N/A   Partly Cloudy
5:54 PM 72.0 °F 52.0 °F 49% 29.96 in 10.0 mi SW 17.3 mph 29.9 mph N/A   Partly Cloudy
6:54 PM 71.1 °F 52.0 °F 51% 29.97 in 10.0 mi SW 15.0 mph 20.7 mph N/A   Scattered Clouds
7:54 PM 70.0 °F 52.0 °F 53% 29.97 in 10.0 mi SW 10.4 mph 20.7 mph N/A   Partly Cloudy
8:54 PM 68.0 °F 53.1 °F 59% 29.99 in 10.0 mi SW 10.4 mph - N/A   Mostly Cloudy
9:54 PM 66.9 °F 53.1 °F 61% 29.99 in 10.0 mi SW 8.1 mph - N/A   Mostly Cloudy
10:54 PM 64.9 °F 54.0 °F 68% 29.99 in 10.0 mi SW 6.9 mph - N/A   Partly Cloudy
11:54 PM 64.0 °F 54.0 °F 70% 30.00 in 10.0 mi SW 9.2 mph - N/A   Clear